Stations météo

réclame
Mon MeteoGroup
Brocken, Allemagne (10453): Température de l'air & dewpoint: 12.06.2018 13:00:00 - 18.06.2018 13:00:00 (CEST)Brocken, Allemagne (10453): Température de l'air 5cm: 12.06.2018 13:00:00 - 18.06.2018 13:00:00 (CEST)Brocken, Allemagne (10453): Vitesse du vent & gusts: 12.06.2018 13:00:00 - 18.06.2018 13:00:00 (CEST)Brocken, Allemagne (10453): Direction du vent: 12.06.2018 13:00:00 - 18.06.2018 13:00:00 (CEST)Brocken, Allemagne (10453): visibility: 12.06.2018 13:00:00 - 18.06.2018 13:00:00 (CEST)Brocken, Allemagne (10453): Ensoleillement: 12.06.2018 13:00:00 - 18.06.2018 13:00:00 (CEST)
Date & Time tt [°C] td [°C] tt 5cm [°C] ff [km/h] ff [knt] fx [km/h] fx [knt] dd vv [km] sd [min]
18.06.2018 13:00:00 9,5 8,6 - 36 20 51 28 SW 50 6
18.06.2018 12:00:00 9,5 8,1 13,2 33 18 44 24 SW 50 5
18.06.2018 11:00:00 9,2 6,5 12,2 32 17 48 26 SW 50 32
18.06.2018 10:00:00 8,0 6,7 10,2 34 18 41 22 SW 50 0
18.06.2018 09:00:00 7,6 6,5 9,7 34 18 40 22 SW 50 0
18.06.2018 08:00:00 8,0 5,6 9,2 24 13 35 19 WSW 50 0
18.06.2018 07:00:00 7,7 5,2 7,8 29 16 38 20 W 50 22
18.06.2018 06:00:00 6,4 5,2 5,6 33 18 41 22 W 40 0
18.06.2018 05:00:00 6,7 6,5 6,6 29 16 39 21 W 0,1 0
18.06.2018 04:00:00 6,9 6,4 6,8 28 15 36 20 W 60 0
18.06.2018 03:00:00 7,4 6,5 7,3 28 15 33 18 W 60 0
18.06.2018 02:00:00 8,0 6,7 7,7 29 16 46 25 WSW 60 0
18.06.2018 01:00:00 8,5 6,6 8,1 35 19 41 22 W 60 0
18.06.2018 00:00:00 8,8 6,2 8,3 29 16 34 18 W 60 0
17.06.2018 23:00:00 8,9 6,7 8,0 23 13 31 17 W 60 0
17.06.2018 22:00:00 9,4 6,7 8,0 18 10 23 12 W 60 0
17.06.2018 21:00:00 10,6 7,0 9,9 15 8 26 14 W 80 0
17.06.2018 20:00:00 11,0 6,5 11,0 15 8 29 16 W 82 0
17.06.2018 19:00:00 11,4 6,3 11,4 23 12 35 19 W 82 0
17.06.2018 18:00:00 12,3 5,9 12,6 28 15 42 23 W 82 11
17.06.2018 17:00:00 12,6 5,7 13,1 29 15 48 26 W 82 20
17.06.2018 16:00:00 13,6 7,0 18,4 28 15 47 26 W 82 28
17.06.2018 15:00:00 12,4 5,7 13,6 40 22 53 29 WSW 82 39
17.06.2018 14:00:00 12,1 5,6 14,6 40 22 57 31 WSW 82 29
17.06.2018 13:00:00 11,9 6,9 13,7 35 19 52 28 WSW 82 28
17.06.2018 12:00:00 11,7 7,3 15,8 34 19 44 24 WSW 82 30
17.06.2018 11:00:00 10,3 6,6 13,5 38 20 53 29 SW 70 35
17.06.2018 10:00:00 9,2 8,3 11,2 28 15 45 25 WSW 15 4
17.06.2018 09:00:00 9,6 8,7 10,0 30 16 48 26 W - 5
17.06.2018 08:00:00 9,9 9,5 10,9 40 22 50 27 W - 1
17.06.2018 07:00:00 9,9 9,6 10,4 33 18 43 23 W 0,1 22
17.06.2018 06:00:00 9,7 9,3 9,4 36 19 44 24 W 0,3 0
17.06.2018 05:00:00 10,5 10,0 10,2 35 19 48 26 W 0,3 0
17.06.2018 04:00:00 11,3 9,8 10,5 42 23 53 28 WSW 50 0
17.06.2018 03:00:00 12,2 9,3 11,0 49 26 58 32 SW 80 0
17.06.2018 02:00:00 13,3 8,7 11,2 39 21 45 24 SSW 80 0
17.06.2018 01:00:00 13,9 8,4 12,3 34 19 43 23 SSW 80 0
17.06.2018 00:00:00 13,9 8,3 12,6 35 19 41 22 SW 82 0
16.06.2018 23:00:00 14,2 7,4 12,9 35 19 40 22 SSW 82 0
16.06.2018 22:00:00 14,4 7,1 11,4 23 12 26 14 SSW 80 3
16.06.2018 21:00:00 14,8 6,8 12,1 22 12 27 15 SW 82 44
16.06.2018 20:00:00 15,1 6,5 14,5 21 12 36 20 SW 82 46
16.06.2018 19:00:00 15,4 6,9 15,7 23 13 31 17 SW 82 35
16.06.2018 18:00:00 15,7 6,9 17,8 23 12 34 18 SSW 82 16
16.06.2018 17:00:00 16,0 6,3 17,6 21 12 36 19 S 82 16
16.06.2018 16:00:00 15,5 6,4 18,8 23 12 41 22 SW 82 31
16.06.2018 15:00:00 14,9 6,9 18,3 28 15 40 22 SW 82 16
16.06.2018 14:00:00 15,6 7,0 18,4 22 12 37 20 SSW 82 27
16.06.2018 13:00:00 14,6 7,1 17,6 17 9 35 19 SSW 82 22
16.06.2018 12:00:00 13,2 6,5 13,3 24 13 32 18 SSW 70 1
16.06.2018 11:00:00 14,9 6,6 18,7 22 12 28 15 SSW 70 50
16.06.2018 10:00:00 12,8 8,7 14,7 17 9 24 13 S 80 14
16.06.2018 09:00:00 12,3 8,4 13,2 10 6 19 10 SSW 80 0
16.06.2018 08:00:00 11,4 8,4 11,7 11 6 18 10 S 70 0
16.06.2018 07:00:00 11,0 8,4 10,5 12 7 16 9 SSW 50 0
16.06.2018 06:00:00 10,9 8,4 9,9 15 8 21 11 SSW 40 0
16.06.2018 05:00:00 10,9 8,7 9,7 16 9 21 11 SSW 50 0
16.06.2018 04:00:00 11,3 8,4 9,9 17 9 21 11 SSW 60 0
16.06.2018 03:00:00 11,2 9,1 9,9 17 9 21 11 S 50 0
16.06.2018 02:00:00 11,2 9,2 9,6 15 8 19 10 S 60 0
16.06.2018 01:00:00 10,9 9,3 9,6 14 7 17 9 S 70 0
16.06.2018 00:00:00 10,9 9,7 10,1 13 7 17 9 S 80 0
15.06.2018 23:00:00 11,0 9,4 10,2 16 8 17 9 S 70 0
15.06.2018 22:00:00 10,8 9,6 10,0 15 8 19 11 SSE 40 0
15.06.2018 21:00:00 11,2 9,3 10,9 16 9 19 10 S 40 11
15.06.2018 20:00:00 11,2 9,2 10,7 10 5 14 8 SE 60 7
15.06.2018 19:00:00 11,8 9,9 12,4 8 4 10 6 ENE 80 0
15.06.2018 18:00:00 11,1 10,3 12,3 9 5 16 8 NE 60 0
15.06.2018 17:00:00 13,1 10,2 14,6 8 5 16 9 NNE 70 12
15.06.2018 16:00:00 13,7 8,3 14,6 12 7 19 11 WNW 60 9
15.06.2018 15:00:00 12,9 9,2 14,8 9 5 18 10 WSW 40 10
15.06.2018 14:00:00 12,5 9,0 13,8 12 6 20 11 WNW 30 3
15.06.2018 13:00:00 10,8 8,9 13,9 16 9 21 11 NNW 25 0
15.06.2018 12:00:00 9,4 9,0 11,9 15 8 23 12 NNW 0,1 0
15.06.2018 11:00:00 9,4 8,9 11,3 9 5 13 7 N 0,1 0
15.06.2018 10:00:00 9,7 9,2 11,1 7 4 11 6 N 0,1 0
15.06.2018 09:00:00 9,6 9,1 11,2 6 4 11 6 N 0,1 0
15.06.2018 08:00:00 9,5 9,2 10,6 9 5 15 8 NW - 0
15.06.2018 07:00:00 8,5 8,2 8,8 11 6 26 14 W 0,1 0
15.06.2018 06:00:00 8,5 8,3 8,7 22 12 33 18 W - 0
15.06.2018 05:00:00 8,2 7,9 8,1 28 15 45 24 W 0,1 0
15.06.2018 04:00:00 8,1 7,8 8,1 35 19 43 23 W 0,1 0
15.06.2018 03:00:00 7,8 7,3 7,7 35 19 42 23 W 10 0
15.06.2018 02:00:00 7,8 7,1 7,6 31 17 37 20 W 30 0
15.06.2018 01:00:00 8,2 7,4 7,9 26 14 34 18 W 25 0
15.06.2018 00:00:00 8,2 7,4 7,9 24 13 26 14 W 10 0
14.06.2018 23:00:00 9,5 7,3 8,8 17 9 22 12 NW 30 0
14.06.2018 22:00:00 10,5 6,0 9,7 20 11 31 17 WSW 40 0
14.06.2018 21:00:00 10,9 5,7 10,1 28 15 38 20 W 50 0
14.06.2018 20:00:00 11,8 4,8 10,7 27 15 42 23 W 50 47
14.06.2018 19:00:00 12,5 4,9 14,8 29 16 39 21 SW 80 57
14.06.2018 18:00:00 12,6 3,1 16,6 24 13 39 21 SW 80 60
14.06.2018 17:00:00 13,1 4,2 18,7 25 14 35 19 SW 82 60
14.06.2018 16:00:00 12,4 3,5 19,2 25 14 37 20 SW 82 60
14.06.2018 15:00:00 12,0 3,9 18,6 18 10 34 19 SSW 80 60
14.06.2018 14:00:00 12,1 3,4 17,7 17 9 29 16 SW 70 60
14.06.2018 13:00:00 11,3 2,4 17,2 17 9 31 17 S 70 60
14.06.2018 12:00:00 11,1 4,6 14,0 10 6 20 11 S 70 16
14.06.2018 11:00:00 10,4 4,3 12,4 7 4 17 9 SE 70 37
14.06.2018 10:00:00 6,8 3,7 9,2 11 6 19 10 WSW 70 26
14.06.2018 09:00:00 7,3 4,2 7,6 12 6 18 10 WSW 70 36
14.06.2018 08:00:00 6,1 4,1 6,5 11 6 15 8 W 70 36
14.06.2018 07:00:00 5,3 3,8 4,5 10 6 21 11 NNW 50 36
14.06.2018 06:00:00 4,2 3,4 3,9 16 9 20 11 NW 20 0
14.06.2018 05:00:00 3,9 3,3 2,6 13 7 19 10 WNW 0,1 0
14.06.2018 04:00:00 4,1 3,7 3,0 14 8 19 11 WNW 0,1 0
14.06.2018 03:00:00 4,5 3,2 2,6 16 9 24 13 WNW 30 0
14.06.2018 02:00:00 4,7 4,3 4,5 19 10 29 16 WNW 40 0
14.06.2018 01:00:00 4,7 4,3 3,6 25 14 32 17 NW 50 0
14.06.2018 00:00:00 5,2 4,7 4,5 25 14 40 21 NW 50 0
13.06.2018 23:00:00 5,6 5,2 5,7 28 15 42 23 NW 20 0
13.06.2018 22:00:00 5,7 5,4 5,9 24 13 35 19 WNW - 0
13.06.2018 21:00:00 5,8 5,4 6,1 25 13 36 19 NW 0,2 0
13.06.2018 20:00:00 6,1 5,4 6,8 21 12 37 20 NW 30 0
13.06.2018 19:00:00 6,7 5,0 7,8 22 12 41 22 NW 50 0
13.06.2018 18:00:00 6,5 5,5 7,0 30 16 45 24 NW 8 6
13.06.2018 17:00:00 6,6 5,6 7,4 34 18 53 29 WNW 15 9
13.06.2018 16:00:00 6,7 5,4 8,3 39 21 50 27 NW 20 1
13.06.2018 15:00:00 6,1 5,7 7,1 32 17 45 24 NW 0,1 0
13.06.2018 14:00:00 6,0 5,3 7,0 35 19 50 27 NW 0,1 0
13.06.2018 13:00:00 6,1 5,2 8,2 34 18 56 30 NW 0,1 0
13.06.2018 12:00:00 5,3 4,9 7,6 42 23 67 36 NNW 0,1 0
13.06.2018 11:00:00 4,9 4,7 5,8 36 20 55 30 NNW - 0
13.06.2018 10:00:00 4,8 4,6 7,4 39 21 66 35 NNW 0,1 0
13.06.2018 09:00:00 4,4 4,2 5,7 44 24 60 32 NNW - 0
13.06.2018 08:00:00 4,3 4,1 4,8 35 19 57 31 NW - 0
13.06.2018 07:00:00 4,5 4,3 5,1 42 23 55 30 NNW - 0
13.06.2018 06:00:00 4,8 4,6 5,1 35 19 49 26 NNW - 0
13.06.2018 05:00:00 4,8 4,6 5,2 30 16 43 23 NNW - 0
13.06.2018 04:00:00 5,1 4,9 5,4 29 16 43 23 NW - 0
13.06.2018 03:00:00 5,4 5,2 5,7 22 12 36 20 NW - 0
13.06.2018 02:00:00 5,5 5,2 5,8 21 11 33 18 NW - 0
13.06.2018 01:00:00 5,7 5,4 6,1 26 14 43 23 NW - 0
13.06.2018 00:00:00 6,2 5,9 6,7 23 12 44 24 N 0,1 0
12.06.2018 23:00:00 6,6 6,4 7,1 27 15 48 26 NNW 0,1 0
12.06.2018 22:00:00 6,7 6,1 7,3 28 15 39 21 NNW 10 0
12.06.2018 21:00:00 7,0 5,8 7,7 33 18 46 25 NNW 40 0
12.06.2018 20:00:00 7,3 5,7 8,4 28 15 44 24 N 40 0
12.06.2018 19:00:00 7,9 5,8 9,7 29 16 47 25 NNW 45 0
12.06.2018 18:00:00 8,1 5,6 10,2 31 17 41 22 NW 15 0
12.06.2018 17:00:00 8,8 6,3 12,6 29 16 40 22 NNW 20 0
12.06.2018 16:00:00 9,9 6,3 14,0 31 17 41 22 NW 10 17
12.06.2018 15:00:00 9,0 5,3 12,3 24 13 34 19 NW 25 2
12.06.2018 14:00:00 10,9 5,6 18,3 21 11 28 15 NW 15 24
12.06.2018 13:00:00 8,8 5,7 13,3 16 9 31 17 NW 15 0

tt = Température de l'air
td = dewpoint
tt 5cm = Température de l'air 5cm
ff = Vitesse du vent
fx = gusts
dd = Direction du vent
vv = visibility
sd = Ensoleillement

stations d'obs. à proximité